Location: Newark
(42.8481°N, 0.4872°E)
Time: 07:40:37
(UTC+00:00)

Vanguard 1 - Pass Details

Date: 03 November 2020
Orbit: 650 x 3833 km, 34.2° (Epoch: 28 November)

Event Time Altitude Azimuth Distance (km) Brightness Sun altitude
Rises 13:38:39 0° 262° (W) 7,370 15.1 25.9°
Reaches altitude 10° 13:43:15 10° 260° (W) 6,591 15.0 25.5°
Maximum altitude 14:06:08 67° 185° (S) 3,939 13.8 23.0°
Drops below altitude 10° 14:25:32 10° 108° (ESE) 5,730 13.8 20.7°
Sets 14:29:12 0° 105° (ESE) 6,413 14.0 20.3°
